Location: Albany
(35.0170°S, 117.8920°E)
Time: 10:06:36
(UTC+08:00)

S-56A Canister/Altair - Pass Details

Date: 25 January 2021
Orbit: 632 x 2501 km, 38.9° (Epoch: 25 February)

Event Time Altitude Azimuth Distance (km) Brightness Sun altitude
Rises 21:36:55 0° 254° (WSW) 5,847 13.0 -23.6°
Reaches altitude 10° 21:42:40 10° 269° (W) 4,533 12.0 -24.4°
Maximum altitude 21:49:44 18° 305° (NW) 3,444 10.8 -25.3°
Enters shadow 21:54:39 12° 338° (NNW) 3,481 10.6 -26.0°
Drops below altitude 10° 21:55:31 10° 344° (NNW) 3,571 - -26.1°
Sets 21:59:19 0° 2° (N) 4,207 - -26.6°
